Tracking 19832 objects as of 25-Aug-2019
HD Live streaming from Space Station
objects crossing your sky now

COSMOS 2251 DEB

Track COSMOS 2251 DEB now!
10-day predictions


NORAD ID: 38216
Int'l Code: 1993-036BTG
Perigee: 587.8 km
Apogee: 590.6 km
Inclination: 74.0 °
Period: 96.3 minutes
Semi major axis: 6960 km
RCS: 0.0118 m2 (small)
Launch date: June 16, 1993
Source: Commonwealth of Independent States (former USSR) (CIS)
Launch site: PLESETSK MISSILE AND SPACE COMPLEX (PKMTR)

Note: This is SATELLITE DEBRIS
aabbcc
Your satellite tracking list
Your tracking list is empty




NASA's NSSDC Master Catalog

Two Line Element Set (TLE):
1 38216U 93036BTG 19236.75335143 +.00003794 +00000-0 +34951-3 0  9991
2 38216 074.0160 257.1325 0002036 100.9400 259.2013 14.95095173319942
Source of the keplerian elements: AFSPC